Location: Newark
(41.6500°N, 71.4833°W)
Time: 19:39:40
(UTC+00:00)

Tiros 1 - Pass Details

Date: 25 January 2020
Orbit: 631 x 664 km, 48.4° (Epoch: 19 February)

Event Time Altitude Azimuth Distance (km) Brightness Sun altitude
Rises 22:37:13 0° 298° (WNW) 2,974 11.3 -8.7°
Reaches altitude 10° 22:39:33 10° 298° (WNW) 2,066 10.4 -9.1°
Maximum altitude 22:44:20 89° 213° (SSW) 663 7.2 -9.9°
Drops below altitude 10° 22:49:09 10° 120° (ESE) 2,073 9.3 -10.8°
Enters shadow 22:50:19 - 120° (ESE) 2,529 9.8 -11.0°
